Time,TemperatureF,DewpointF,PressureIn,WindDirection,WindDirectionDegrees,WindSpeedMPH,WindSpeedGustMPH,Humidity,HourlyPrecipIn,Conditions,Clouds,dailyrainin,SoftwareType,DateUTC
2013-06-30 00:00:00,64.9,58.2,29.88,NW,323,1.0,8.0,79,0.00,,,0.21,Wunderground v.1.15,2013-06-30 05:00:00,
2013-06-30 00:06:00,64.9,58.2,29.88,NNE,22,2.0,8.0,79,0.00,,,0.00,Wunderground v.1.15,2013-06-30 05:06:00,
2013-06-30 00:12:00,64.9,58.2,29.88,NNW,343,2.0,8.0,79,0.00,,,0.00,Wunderground v.1.15,2013-06-30 05:12:00,
2013-06-30 00:18:00,64.9,58.2,29.88,NE,40,1.0,8.0,79,0.00,,,0.00,Wunderground v.1.15,2013-06-30 05:18:00,
2013-06-30 00:24:00,65.0,58.3,29.88,NE,56,2.0,8.0,79,0.00,,,0.00,Wunderground v.1.15,2013-06-30 05:24:00,
2013-06-30 00:29:00,65.0,58.3,29.89,ENE,65,2.0,8.0,79,0.00,,,0.00,Wunderground v.1.15,2013-06-30 05:29:00,
2013-06-30 00:36:00,65.0,58.0,29.89,NE,46,2.0,8.0,78,0.00,,,0.00,Wunderground v.1.15,2013-06-30 05:36:00,
2013-06-30 00:41:00,65.0,58.0,29.89,NE,46,2.0,5.0,78,0.00,,,0.00,Wunderground v.1.15,2013-06-30 05:41:00,
2013-06-30 00:48:00,65.1,58.1,29.89,NNW,334,2.0,8.0,78,0.00,,,0.00,Wunderground v.1.15,2013-06-30 05:48:00,
2013-06-30 00:54:00,65.1,58.1,29.89,North,354,2.0,8.0,78,0.00,,,0.00,Wunderground v.1.15,2013-06-30 05:54:00,
2013-06-30 01:00:00,65.0,58.0,29.89,NE,49,2.0,2.0,78,0.00,,,0.00,Wunderground v.1.15,2013-06-30 06:00:00,
2013-06-30 01:06:00,64.9,57.9,29.89,NE,43,1.0,8.0,78,0.00,,,0.00,Wunderground v.1.15,2013-06-30 06:06:00,
2013-06-30 01:11:00,64.8,57.8,29.89,ENE,62,1.0,8.0,78,0.00,,,0.00,Wunderground v.1.15,2013-06-30 06:11:00,
2013-06-30 01:18:00,64.6,57.9,29.89,ENE,68,2.0,8.0,79,0.00,,,0.00,Wunderground v.1.15,2013-06-30 06:18:00,
2013-06-30 01:24:00,64.5,57.8,29.89,East,81,2.0,8.0,79,0.00,,,0.00,Wunderground v.1.15,2013-06-30 06:24:00,
2013-06-30 01:30:00,64.3,57.6,29.89,NNE,32,3.0,3.0,79,0.00,,,0.00,Wunderground v.1.15,2013-06-30 06:30:00,
2013-06-30 01:36:00,64.1,57.5,29.89,ENE,60,2.0,8.0,79,0.00,,,0.00,Wunderground v.1.15,2013-06-30 06:36:00,
2013-06-30 01:42:00,63.9,57.6,29.89,NE,43,2.0,8.0,80,0.00,,,0.00,Wunderground v.1.15,2013-06-30 06:42:00,
2013-06-30 01:48:00,63.7,57.4,29.89,SSE,150,3.0,8.0,80,0.00,,,0.00,Wunderground v.1.15,2013-06-30 06:48:00,
2013-06-30 01:54:00,63.5,57.2,29.89,NNW,331,3.0,8.0,80,0.00,,,0.00,Wunderground v.1.15,2013-06-30 06:54:00,
2013-06-30 02:00:00,63.2,56.9,29.89,ENE,58,2.0,8.0,80,0.00,,,0.00,Wunderground v.1.15,2013-06-30 07:00:00,
2013-06-30 02:06:00,63.1,57.2,29.89,NE,39,2.0,8.0,81,0.00,,,0.00,Wunderground v.1.15,2013-06-30 07:06:00,
2013-06-30 02:12:00,62.8,56.9,29.89,NW,326,2.0,8.0,81,0.00,,,0.00,Wunderground v.1.15,2013-06-30 07:12:00,
2013-06-30 02:18:00,62.7,56.8,29.89,NE,37,2.0,8.0,81,0.00,,,0.00,Wunderground v.1.15,2013-06-30 07:18:00,
2013-06-30 02:24:00,62.4,56.8,29.89,ENE,63,1.0,8.0,82,0.00,,,0.00,Wunderground v.1.15,2013-06-30 07:24:00,
2013-06-30 02:29:00,62.4,56.5,29.89,NE,49,2.0,8.0,81,0.00,,,0.00,Wunderground v.1.15,2013-06-30 07:29:00,
2013-06-30 02:36:00,62.3,56.4,29.89,ENE,58,2.0,8.0,81,0.00,,,0.00,Wunderground v.1.15,2013-06-30 07:36:00,
2013-06-30 02:41:00,62.1,56.5,29.89,NE,34,1.0,8.0,82,0.00,,,0.00,Wunderground v.1.15,2013-06-30 07:41:00,
2013-06-30 02:48:00,61.9,56.3,29.90,NE,34,1.0,8.0,82,0.00,,,0.00,Wunderground v.1.15,2013-06-30 07:48:00,
2013-06-30 02:54:00,61.7,56.5,29.90,NW,313,1.0,8.0,83,0.00,,,0.00,Wunderground v.1.15,2013-06-30 07:54:00,
2013-06-30 03:00:00,61.6,56.4,29.90,NNE,20,1.0,8.0,83,0.00,,,0.00,Wunderground v.1.15,2013-06-30 08:00:00,
2013-06-30 03:06:00,61.5,56.3,29.90,NE,44,1.0,8.0,83,0.00,,,0.00,Wunderground v.1.15,2013-06-30 08:06:00,
2013-06-30 03:12:00,61.4,56.2,29.90,NNE,22,2.0,8.0,83,0.00,,,0.00,Wunderground v.1.15,2013-06-30 08:12:00,
2013-06-30 03:18:00,61.3,56.1,29.90,ENE,75,1.0,8.0,83,0.00,,,0.00,Wunderground v.1.15,2013-06-30 08:18:00,
2013-06-30 03:24:00,61.3,56.1,29.90,NE,41,0.0,8.0,83,0.00,,,0.00,Wunderground v.1.15,2013-06-30 08:24:00,
2013-06-30 03:30:00,61.4,56.2,29.91,NNW,343,1.0,8.0,83,0.00,,,0.00,Wunderground v.1.15,2013-06-30 08:30:00,
2013-06-30 03:36:00,61.4,56.2,29.91,ENE,59,1.0,8.0,83,0.00,,,0.00,Wunderground v.1.15,2013-06-30 08:36:00,
2013-06-30 03:42:00,61.4,55.9,29.91,NE,46,1.0,8.0,82,0.00,,,0.00,Wunderground v.1.15,2013-06-30 08:42:00,
2013-06-30 03:48:00,61.4,55.9,29.91,NE,56,1.0,8.0,82,0.00,,,0.00,Wunderground v.1.15,2013-06-30 08:48:00,
2013-06-30 03:53:00,61.5,56.0,29.91,NE,54,2.0,8.0,82,0.00,,,0.00,Wunderground v.1.15,2013-06-30 08:53:00,
2013-06-30 04:00:00,61.5,56.0,29.91,NNW,341,2.0,8.0,82,0.00,,,0.00,Wunderground v.1.15,2013-06-30 09:00:00,
2013-06-30 04:06:00,61.5,56.0,29.91,ENE,65,2.0,8.0,82,0.00,,,0.00,Wunderground v.1.15,2013-06-30 09:06:00,
2013-06-30 04:12:00,61.4,55.9,29.91,ENE,74,2.0,8.0,82,0.00,,,0.00,Wunderground v.1.15,2013-06-30 09:12:00,
2013-06-30 04:18:00,61.3,55.8,29.91,NE,40,2.0,8.0,82,0.00,,,0.00,Wunderground v.1.15,2013-06-30 09:18:00,
2013-06-30 04:24:00,61.3,55.8,29.91,NE,44,1.0,8.0,82,0.00,,,0.00,Wunderground v.1.15,2013-06-30 09:24:00,
2013-06-30 04:30:00,61.3,55.8,29.91,NNE,23,2.0,8.0,82,0.00,,,0.00,Wunderground v.1.15,2013-06-30 09:30:00,
2013-06-30 04:36:00,61.3,55.4,29.91,ENE,58,2.0,8.0,81,0.00,,,0.00,Wunderground v.1.15,2013-06-30 09:36:00,
2013-06-30 04:42:00,61.3,55.4,29.91,ENE,65,2.0,8.0,81,0.00,,,0.00,Wunderground v.1.15,2013-06-30 09:42:00,
2013-06-30 04:47:00,61.1,55.2,29.92,NE,46,2.0,8.0,81,0.00,,,0.00,Wunderground v.1.15,2013-06-30 09:47:00,
2013-06-30 04:54:00,60.9,55.0,29.92,ESE,120,1.0,8.0,81,0.00,,,0.00,Wunderground v.1.15,2013-06-30 09:54:00,
2013-06-30 05:00:00,60.7,55.2,29.92,NE,44,1.0,1.0,82,0.00,,,0.00,Wunderground v.1.15,2013-06-30 10:00:00,
2013-06-30 05:06:00,60.5,55.0,29.92,East,81,1.0,8.0,82,0.00,,,0.00,Wunderground v.1.15,2013-06-30 10:06:00,
2013-06-30 05:12:00,60.4,54.9,29.93,NE,40,1.0,8.0,82,0.00,,,0.00,Wunderground v.1.15,2013-06-30 10:12:00,
2013-06-30 05:18:00,60.2,54.7,29.93,ENE,75,0.0,8.0,82,0.00,,,0.00,Wunderground v.1.15,2013-06-30 10:18:00,
2013-06-30 05:24:00,60.1,54.9,29.93,NE,41,1.0,8.0,83,0.00,,,0.00,Wunderground v.1.15,2013-06-30 10:24:00,
2013-06-30 05:30:00,59.9,54.7,29.94,NW,305,0.0,8.0,83,0.00,,,0.00,Wunderground v.1.15,2013-06-30 10:30:00,
2013-06-30 05:36:00,59.7,54.5,29.94,NNE,29,0.0,8.0,83,0.00,,,0.00,Wunderground v.1.15,2013-06-30 10:36:00,
2013-06-30 05:42:00,59.6,54.8,29.94,NE,40,0.0,8.0,84,0.00,,,0.00,Wunderground v.1.15,2013-06-30 10:42:00,
2013-06-30 05:48:00,59.6,54.8,29.95,NW,320,1.0,8.0,84,0.00,,,0.00,Wunderground v.1.15,2013-06-30 10:48:00,
2013-06-30 05:54:00,59.6,54.8,29.95,NNW,334,1.0,8.0,84,0.00,,,0.00,Wunderground v.1.15,2013-06-30 10:54:00,
2013-06-30 06:00:00,59.6,54.8,29.95,ENE,61,0.0,8.0,84,0.00,,,0.00,Wunderground v.1.15,2013-06-30 11:00:00,
2013-06-30 06:06:00,59.7,54.5,29.95,ENE,67,0.0,8.0,83,0.00,,,0.00,Wunderground v.1.15,2013-06-30 11:06:00,
2013-06-30 06:11:00,59.8,54.6,29.95,NW,315,1.0,8.0,83,0.00,,,0.00,Wunderground v.1.15,2013-06-30 11:11:00,
2013-06-30 06:18:00,59.8,54.6,29.96,North,357,1.0,8.0,83,0.00,,,0.00,Wunderground v.1.15,2013-06-30 11:18:00,
2013-06-30 06:23:00,59.9,54.7,29.96,North,5,1.0,8.0,83,0.00,,,0.00,Wunderground v.1.15,2013-06-30 11:23:00,
2013-06-30 06:30:00,59.9,54.7,29.96,NNE,29,1.0,1.0,83,0.00,,,0.00,Wunderground v.1.15,2013-06-30 11:30:00,
2013-06-30 06:36:00,60.0,54.8,29.96,NE,53,1.0,8.0,83,0.00,,,0.00,Wunderground v.1.15,2013-06-30 11:36:00,
2013-06-30 06:41:00,60.1,54.9,29.96,ENE,68,1.0,8.0,83,0.00,,,0.00,Wunderground v.1.15,2013-06-30 11:41:00,
2013-06-30 06:48:00,60.1,54.6,29.96,NW,309,1.0,8.0,82,0.00,,,0.00,Wunderground v.1.15,2013-06-30 11:48:00,
2013-06-30 06:54:00,60.2,54.7,29.96,NE,41,1.0,8.0,82,0.00,,,0.00,Wunderground v.1.15,2013-06-30 11:54:00,
2013-06-30 07:00:00,60.4,54.5,29.97,North,11,1.0,8.0,81,0.00,,,0.00,Wunderground v.1.15,2013-06-30 12:00:00,
2013-06-30 07:06:00,60.5,54.6,29.97,NE,41,1.0,8.0,81,0.00,,,0.00,Wunderground v.1.15,2013-06-30 12:06:00,
2013-06-30 07:12:00,60.6,54.7,29.97,NNE,16,1.0,8.0,81,0.00,,,0.00,Wunderground v.1.15,2013-06-30 12:12:00,
2013-06-30 07:18:00,60.8,54.6,29.97,NNE,22,2.0,8.0,80,0.00,,,0.00,Wunderground v.1.15,2013-06-30 12:18:00,
2013-06-30 07:24:00,60.9,54.7,29.97,WNW,302,2.0,8.0,80,0.00,,,0.00,Wunderground v.1.15,2013-06-30 12:24:00,
2013-06-30 07:30:00,61.0,54.4,29.98,NNE,18,1.0,8.0,79,0.00,,,0.00,Wunderground v.1.15,2013-06-30 12:30:00,
2013-06-30 07:35:00,61.1,54.9,29.98,West,276,1.0,8.0,80,0.00,,,0.00,Wunderground v.1.15,2013-06-30 12:35:00,
2013-06-30 07:42:00,61.3,54.4,29.98,NNE,20,2.0,8.0,78,0.00,,,0.00,Wunderground v.1.15,2013-06-30 12:42:00,
2013-06-30 07:47:00,61.4,54.5,29.98,SSW,203,2.0,8.0,78,0.00,,,0.00,Wunderground v.1.15,2013-06-30 12:47:00,
2013-06-30 07:54:00,61.7,54.8,29.98,NE,41,2.0,8.0,78,0.00,,,0.00,Wunderground v.1.15,2013-06-30 12:54:00,
2013-06-30 08:00:00,62.0,54.7,29.98,NE,34,1.0,1.0,77,0.00,,,0.00,Wunderground v.1.15,2013-06-30 13:00:00,
2013-06-30 08:06:00,62.2,54.5,29.98,NE,48,1.0,8.0,76,0.00,,,0.00,Wunderground v.1.15,2013-06-30 13:06:00,
2013-06-30 08:12:00,62.3,54.3,29.98,East,79,2.0,8.0,75,0.00,,,0.00,Wunderground v.1.15,2013-06-30 13:12:00,
2013-06-30 08:17:00,62.4,54.4,29.98,NE,51,2.0,8.0,75,0.00,,,0.00,Wunderground v.1.15,2013-06-30 13:17:00,
2013-06-30 08:24:00,62.7,54.7,29.98,ESE,103,2.0,8.0,75,0.00,,,0.00,Wunderground v.1.15,2013-06-30 13:24:00,
2013-06-30 08:30:00,63.3,54.5,29.98,NNE,30,1.0,1.0,73,0.00,,,0.00,Wunderground v.1.15,2013-06-30 13:30:00,
2013-06-30 08:36:00,63.6,54.4,29.98,ENE,60,1.0,8.0,72,0.00,,,0.00,Wunderground v.1.15,2013-06-30 13:36:00,
2013-06-30 08:42:00,63.8,54.6,29.98,NNW,348,2.0,8.0,72,0.00,,,0.00,Wunderground v.1.15,2013-06-30 13:42:00,
2013-06-30 08:48:00,64.0,54.4,29.98,NNE,32,2.0,8.0,71,0.00,,,0.00,Wunderground v.1.15,2013-06-30 13:48:00,
2013-06-30 08:54:00,64.4,54.8,29.98,NE,34,1.0,8.0,71,0.00,,,0.00,Wunderground v.1.15,2013-06-30 13:54:00,
2013-06-30 08:59:00,64.5,54.9,29.98,WNW,298,2.0,8.0,71,0.00,,,0.00,Wunderground v.1.15,2013-06-30 13:59:00,
2013-06-30 09:06:00,64.8,55.2,29.98,NNE,16,1.0,8.0,71,0.00,,,0.00,Wunderground v.1.15,2013-06-30 14:06:00,
2013-06-30 09:12:00,65.0,54.6,29.98,West,260,2.0,8.0,69,0.00,,,0.00,Wunderground v.1.15,2013-06-30 14:12:00,
2013-06-30 09:18:00,65.1,54.7,29.98,ENE,77,2.0,8.0,69,0.00,,,0.00,Wunderground v.1.15,2013-06-30 14:18:00,
2013-06-30 09:24:00,65.2,54.4,29.98,NNW,334,3.0,8.0,68,0.00,,,0.00,Wunderground v.1.15,2013-06-30 14:24:00,
2013-06-30 09:30:00,65.3,54.1,29.98,NNE,29,2.0,2.0,67,0.00,,,0.00,Wunderground v.1.15,2013-06-30 14:30:00,
2013-06-30 09:36:00,65.5,54.2,29.99,NE,46,2.0,8.0,67,0.00,,,0.00,Wunderground v.1.15,2013-06-30 14:36:00,
2013-06-30 09:42:00,65.8,54.9,29.99,WNW,297,3.0,8.0,68,0.00,,,0.00,Wunderground v.1.15,2013-06-30 14:42:00,
2013-06-30 09:48:00,66.5,55.2,29.99,NE,37,2.0,8.0,67,0.00,,,0.00,Wunderground v.1.15,2013-06-30 14:48:00,
2013-06-30 09:54:00,66.5,54.8,29.99,NNE,25,2.0,8.0,66,0.00,,,0.00,Wunderground v.1.15,2013-06-30 14:54:00,
2013-06-30 10:00:00,66.3,54.6,29.99,NE,34,3.0,8.0,66,0.00,,,0.00,Wunderground v.1.15,2013-06-30 15:00:00,
2013-06-30 10:06:00,66.1,54.4,29.99,NE,39,3.0,8.0,66,0.00,,,0.00,Wunderground v.1.15,2013-06-30 15:06:00,
2013-06-30 10:12:00,66.0,54.3,29.99,NNE,13,3.0,8.0,66,0.00,,,0.00,Wunderground v.1.15,2013-06-30 15:12:00,
2013-06-30 10:18:00,66.4,54.7,29.99,NE,51,3.0,8.0,66,0.00,,,0.00,Wunderground v.1.15,2013-06-30 15:18:00,
2013-06-30 10:24:00,66.4,54.7,30.00,NNW,331,4.0,8.0,66,0.00,,,0.00,Wunderground v.1.15,2013-06-30 15:24:00,
2013-06-30 10:30:00,66.6,54.9,30.00,NNE,16,3.0,3.0,66,0.00,,,0.00,Wunderground v.1.15,2013-06-30 15:30:00,
2013-06-30 10:36:00,67.0,54.8,30.00,WNW,295,2.0,8.0,65,0.00,,,0.00,Wunderground v.1.15,2013-06-30 15:36:00,
2013-06-30 10:42:00,67.2,55.5,30.00,NE,53,2.0,8.0,66,0.00,,,0.00,Wunderground v.1.15,2013-06-30 15:42:00,
2013-06-30 10:48:00,67.5,55.3,30.00,WNW,302,2.0,8.0,65,0.00,,,0.00,Wunderground v.1.15,2013-06-30 15:48:00,
2013-06-30 10:54:00,67.9,55.7,30.00,East,91,2.0,8.0,65,0.00,,,0.00,Wunderground v.1.15,2013-06-30 15:54:00,
2013-06-30 11:00:00,68.3,55.6,30.00,SW,222,3.0,8.0,64,0.00,,,0.00,Wunderground v.1.15,2013-06-30 16:00:00,
2013-06-30 11:06:00,68.9,55.3,30.00,NNE,32,3.0,8.0,62,0.00,,,0.00,Wunderground v.1.15,2013-06-30 16:06:00,
2013-06-30 11:12:00,69.2,55.6,30.00,NE,34,3.0,8.0,62,0.00,,,0.00,Wunderground v.1.15,2013-06-30 16:12:00,
2013-06-30 11:18:00,69.9,57.2,30.00,ENE,70,2.0,8.0,64,0.00,,,0.00,Wunderground v.1.15,2013-06-30 16:18:00,
2013-06-30 11:24:00,70.7,57.0,30.00,NNE,16,2.0,8.0,62,0.00,,,0.00,Wunderground v.1.15,2013-06-30 16:24:00,
2013-06-30 11:30:00,71.4,57.7,30.00,ENE,75,3.0,3.0,62,0.00,,,0.00,Wunderground v.1.15,2013-06-30 16:30:00,
2013-06-30 11:36:00,71.6,57.0,30.01,ENE,63,3.0,8.0,60,0.00,,,0.00,Wunderground v.1.15,2013-06-30 16:36:00,
2013-06-30 11:42:00,71.8,56.2,30.01,East,79,3.0,8.0,58,0.00,,,0.00,Wunderground v.1.15,2013-06-30 16:42:00,
2013-06-30 11:48:00,71.9,57.3,30.00,WNW,298,3.0,8.0,60,0.00,,,0.00,Wunderground v.1.15,2013-06-30 16:48:00,
2013-06-30 11:54:00,72.2,57.5,30.00,NE,40,2.0,8.0,60,0.00,,,0.00,Wunderground v.1.15,2013-06-30 16:54:00,
2013-06-30 12:00:00,72.3,55.7,30.00,NE,37,3.0,3.0,56,0.00,,,0.00,Wunderground v.1.15,2013-06-30 17:00:00,
2013-06-30 12:06:00,72.7,55.6,30.00,ENE,63,3.0,8.0,55,0.00,,,0.00,Wunderground v.1.15,2013-06-30 17:06:00,
2013-06-30 12:12:00,72.6,55.5,30.00,NE,54,4.0,8.0,55,0.00,,,0.00,Wunderground v.1.15,2013-06-30 17:12:00,
2013-06-30 12:18:00,73.1,56.5,30.00,WNW,293,3.0,8.0,56,0.00,,,0.00,Wunderground v.1.15,2013-06-30 17:18:00,
2013-06-30 12:24:00,73.4,56.2,30.00,NE,41,3.0,8.0,55,0.00,,,0.00,Wunderground v.1.15,2013-06-30 17:24:00,
2013-06-30 12:30:00,73.4,56.7,30.00,NE,43,3.0,3.0,56,0.00,,,0.00,Wunderground v.1.15,2013-06-30 17:30:00,
2013-06-30 12:36:00,73.7,56.0,30.00,NW,304,3.0,8.0,54,0.00,,,0.00,Wunderground v.1.15,2013-06-30 17:36:00,
2013-06-30 12:42:00,73.9,55.7,30.00,WNW,298,4.0,8.0,53,0.00,,,0.00,Wunderground v.1.15,2013-06-30 17:42:00,
2013-06-30 12:48:00,74.5,58.3,30.00,NNE,32,2.0,8.0,57,0.00,,,0.00,Wunderground v.1.15,2013-06-30 17:48:00,
2013-06-30 12:54:00,74.1,53.7,30.00,NE,56,4.0,8.0,49,0.00,,,0.00,Wunderground v.1.15,2013-06-30 17:54:00,
2013-06-30 13:00:00,74.1,55.9,30.00,ENE,67,5.0,5.0,53,0.00,,,0.00,Wunderground v.1.15,2013-06-30 18:00:00,
2013-06-30 13:06:00,74.6,55.8,30.00,NW,314,4.0,8.0,52,0.00,,,0.00,Wunderground v.1.15,2013-06-30 18:06:00,
2013-06-30 13:12:00,74.9,54.4,30.00,NE,53,3.0,8.0,49,0.00,,,0.00,Wunderground v.1.15,2013-06-30 18:12:00,
2013-06-30 13:18:00,74.6,53.0,30.00,North,360,4.0,8.0,47,0.00,,,0.00,Wunderground v.1.15,2013-06-30 18:18:00,
2013-06-30 13:24:00,74.8,54.4,30.00,ENE,63,4.0,8.0,49,0.00,,,0.00,Wunderground v.1.15,2013-06-30 18:24:00,
2013-06-30 13:30:00,74.9,55.0,30.00,NW,314,3.0,8.0,50,0.00,,,0.00,Wunderground v.1.15,2013-06-30 18:30:00,
2013-06-30 13:36:00,74.7,54.3,30.00,NE,45,4.0,8.0,49,0.00,,,0.00,Wunderground v.1.15,2013-06-30 18:36:00,
2013-06-30 13:42:00,74.7,53.7,30.00,East,82,4.0,6.0,48,0.00,,,0.00,Wunderground v.1.15,2013-06-30 18:42:00,
2013-06-30 13:48:00,74.4,52.9,30.00,ENE,63,4.0,8.0,47,0.00,,,0.00,Wunderground v.1.15,2013-06-30 18:48:00,
2013-06-30 13:54:00,74.2,53.8,30.00,NE,37,4.0,8.0,49,0.00,,,0.00,Wunderground v.1.15,2013-06-30 18:54:00,
2013-06-30 14:00:00,74.3,54.5,30.00,NNW,329,4.0,4.0,50,0.00,,,0.00,Wunderground v.1.15,2013-06-30 19:00:00,
2013-06-30 14:06:00,74.4,55.6,30.00,NNW,348,4.0,8.0,52,0.00,,,0.00,Wunderground v.1.15,2013-06-30 19:06:00,
2013-06-30 14:12:00,74.8,53.8,30.00,NNE,15,3.0,8.0,48,0.00,,,0.00,Wunderground v.1.15,2013-06-30 19:12:00,
2013-06-30 14:18:00,74.9,55.6,30.00,NNW,345,4.0,8.0,51,0.00,,,0.00,Wunderground v.1.15,2013-06-30 19:18:00,
2013-06-30 14:24:00,75.0,52.8,30.00,North,6,4.0,8.0,46,0.00,,,0.00,Wunderground v.1.15,2013-06-30 19:24:00,
2013-06-30 14:30:00,74.7,53.1,30.00,ENE,62,5.0,5.0,47,0.00,,,0.00,Wunderground v.1.15,2013-06-30 19:30:00,
2013-06-30 14:36:00,74.6,54.7,30.00,NE,34,4.0,8.0,50,0.00,,,0.00,Wunderground v.1.15,2013-06-30 19:36:00,
2013-06-30 14:42:00,74.9,54.4,30.00,ENE,61,3.0,8.0,49,0.00,,,0.00,Wunderground v.1.15,2013-06-30 19:42:00,
2013-06-30 14:48:00,74.9,51.5,30.00,NW,308,3.0,8.0,44,0.00,,,0.00,Wunderground v.1.15,2013-06-30 19:48:00,
2013-06-30 14:54:00,75.3,51.9,30.00,ENE,71,3.0,8.0,44,0.00,,,0.00,Wunderground v.1.15,2013-06-30 19:54:00,
2013-06-30 15:00:00,75.5,52.7,30.00,NNE,16,4.0,8.0,45,0.00,,,0.00,Wunderground v.1.15,2013-06-30 20:00:00,
2013-06-30 15:06:00,75.8,53.5,30.00,NNE,15,4.0,8.0,46,0.00,,,0.00,Wunderground v.1.15,2013-06-30 20:06:00,
2013-06-30 15:12:00,76.2,53.3,30.00,ENE,63,4.0,4.0,45,0.00,,,0.00,Wunderground v.1.15,2013-06-30 20:12:00,
2013-06-30 15:18:00,76.0,54.3,30.00,NNE,23,3.0,8.0,47,0.00,,,0.00,Wunderground v.1.15,2013-06-30 20:18:00,
2013-06-30 15:24:00,75.9,54.2,30.00,NE,53,4.0,8.0,47,0.00,,,0.00,Wunderground v.1.15,2013-06-30 20:24:00,
2013-06-30 15:30:00,76.0,54.3,30.00,North,11,3.0,3.0,47,0.00,,,0.00,Wunderground v.1.15,2013-06-30 20:30:00,
2013-06-30 15:36:00,75.8,53.5,30.00,NE,47,3.0,8.0,46,0.00,,,0.00,Wunderground v.1.15,2013-06-30 20:36:00,
2013-06-30 15:42:00,75.5,54.4,30.00,ENE,77,3.0,8.0,48,0.00,,,0.00,Wunderground v.1.15,2013-06-30 20:42:00,
2013-06-30 15:48:00,75.5,55.6,30.00,North,358,2.0,8.0,50,0.00,,,0.00,Wunderground v.1.15,2013-06-30 20:48:00,
2013-06-30 15:54:00,75.5,53.3,30.01,ENE,59,2.0,10.0,46,0.00,,,0.00,Wunderground v.1.15,2013-06-30 20:54:00,
2013-06-30 16:00:00,74.8,52.6,30.01,WNW,302,3.0,3.0,46,0.00,,,0.00,Wunderground v.1.15,2013-06-30 21:00:00,
2013-06-30 16:06:00,74.8,51.4,30.01,ENE,72,3.0,8.0,44,0.00,,,0.00,Wunderground v.1.15,2013-06-30 21:06:00,
2013-06-30 16:12:00,74.7,51.3,30.01,East,84,4.0,11.0,44,0.00,,,0.00,Wunderground v.1.15,2013-06-30 21:12:00,
2013-06-30 16:18:00,74.9,52.7,30.01,ENE,73,4.0,11.0,46,0.00,,,0.00,Wunderground v.1.15,2013-06-30 21:18:00,
2013-06-30 16:24:00,75.3,53.1,30.01,NNW,343,3.0,8.0,46,0.00,,,0.00,Wunderground v.1.15,2013-06-30 21:24:00,
2013-06-30 16:30:00,75.6,52.8,30.01,NNE,32,3.0,8.0,45,0.00,,,0.00,Wunderground v.1.15,2013-06-30 21:30:00,
2013-06-30 16:36:00,75.7,52.8,30.01,East,90,3.0,8.0,45,0.00,,,0.00,Wunderground v.1.15,2013-06-30 21:36:00,
2013-06-30 16:42:00,75.4,52.0,30.00,NE,44,4.0,5.0,44,0.00,,,0.00,Wunderground v.1.15,2013-06-30 21:42:00,
2013-06-30 16:48:00,75.6,51.5,30.00,NNW,345,3.0,8.0,43,0.00,,,0.00,Wunderground v.1.15,2013-06-30 21:48:00,
2013-06-30 16:54:00,75.8,52.3,30.00,NNE,29,3.0,8.0,44,0.00,,,0.00,Wunderground v.1.15,2013-06-30 21:54:00,
2013-06-30 17:00:00,76.0,52.5,30.01,NE,56,3.0,8.0,44,0.00,,,0.00,Wunderground v.1.15,2013-06-30 22:00:00,
2013-06-30 17:06:00,76.4,54.1,30.01,East,82,3.0,8.0,46,0.00,,,0.00,Wunderground v.1.15,2013-06-30 22:06:00,
2013-06-30 17:12:00,76.2,52.1,30.00,NW,307,3.0,8.0,43,0.00,,,0.00,Wunderground v.1.15,2013-06-30 22:12:00,
2013-06-30 17:18:00,76.1,52.0,30.01,ESE,122,3.0,8.0,43,0.00,,,0.00,Wunderground v.1.15,2013-06-30 22:18:00,
2013-06-30 17:24:00,76.1,52.6,30.00,NE,34,3.0,8.0,44,0.00,,,0.00,Wunderground v.1.15,2013-06-30 22:24:00,
2013-06-30 17:30:00,76.1,53.2,30.01,NE,37,3.0,8.0,45,0.00,,,0.00,Wunderground v.1.15,2013-06-30 22:30:00,
2013-06-30 17:36:00,76.0,53.1,30.01,NE,49,3.0,8.0,45,0.00,,,0.00,Wunderground v.1.15,2013-06-30 22:36:00,
2013-06-30 17:42:00,76.0,52.5,30.01,NW,305,4.0,10.0,44,0.00,,,0.00,Wunderground v.1.15,2013-06-30 22:42:00,
2013-06-30 17:48:00,76.2,51.4,30.01,ENE,58,4.0,10.0,42,0.00,,,0.00,Wunderground v.1.15,2013-06-30 22:48:00,
2013-06-30 17:54:00,76.2,52.1,30.01,NE,40,4.0,11.0,43,0.00,,,0.00,Wunderground v.1.15,2013-06-30 22:54:00,
2013-06-30 18:00:00,76.1,51.3,30.01,NE,56,4.0,10.0,42,0.00,,,0.00,Wunderground v.1.15,2013-06-30 23:00:00,
2013-06-30 18:06:00,76.0,53.1,30.01,East,94,5.0,10.0,45,0.00,,,0.00,Wunderground v.1.15,2013-06-30 23:06:00,
2013-06-30 18:12:00,75.9,51.8,30.01,NW,319,4.0,8.0,43,0.00,,,0.00,Wunderground v.1.15,2013-06-30 23:12:00,
2013-06-30 18:18:00,76.1,52.6,30.01,NNE,20,4.0,8.0,44,0.00,,,0.00,Wunderground v.1.15,2013-06-30 23:18:00,
2013-06-30 18:24:00,76.2,52.1,30.01,NW,321,3.0,8.0,43,0.00,,,0.00,Wunderground v.1.15,2013-06-30 23:24:00,
2013-06-30 18:30:00,75.9,51.2,30.01,ENE,73,4.0,8.0,42,0.00,,,0.00,Wunderground v.1.15,2013-06-30 23:30:00,
2013-06-30 18:36:00,75.7,52.2,30.01,NE,37,5.0,8.0,44,0.00,,,0.00,Wunderground v.1.15,2013-06-30 23:36:00,
2013-06-30 18:42:00,75.5,51.4,30.01,WSW,253,5.0,8.0,43,0.00,,,0.00,Wunderground v.1.15,2013-06-30 23:42:00,
2013-06-30 18:48:00,75.5,51.4,30.02,ENE,65,5.0,8.0,43,0.00,,,0.00,Wunderground v.1.15,2013-06-30 23:48:00,
2013-06-30 18:54:00,75.5,52.1,30.01,ENE,74,4.0,8.0,44,0.00,,,0.00,Wunderground v.1.15,2013-06-30 23:54:00,
2013-06-30 19:00:00,75.7,51.6,30.02,ENE,65,3.0,3.0,43,0.00,,,0.00,Wunderground v.1.15,2013-07-01 00:00:00,
2013-06-30 19:06:00,75.4,50.7,30.02,NW,322,3.0,8.0,42,0.00,,,0.00,Wunderground v.1.15,2013-07-01 00:06:00,
2013-06-30 19:12:00,75.2,51.8,30.02,NE,39,4.0,5.0,44,0.00,,,0.00,Wunderground v.1.15,2013-07-01 00:12:00,
2013-06-30 19:18:00,75.0,51.6,30.02,East,86,4.0,8.0,44,0.00,,,0.00,Wunderground v.1.15,2013-07-01 00:18:00,
2013-06-30 19:24:00,74.9,51.5,30.02,North,354,3.0,8.0,44,0.00,,,0.00,Wunderground v.1.15,2013-07-01 00:24:00,
2013-06-30 19:30:00,74.7,51.9,30.02,ENE,68,3.0,10.0,45,0.00,,,0.00,Wunderground v.1.15,2013-07-01 00:30:00,
2013-06-30 19:36:00,74.3,52.2,30.02,NW,305,4.0,10.0,46,0.00,,,0.00,Wunderground v.1.15,2013-07-01 00:36:00,
2013-06-30 19:42:00,74.1,52.0,30.02,North,357,3.0,8.0,46,0.00,,,0.00,Wunderground v.1.15,2013-07-01 00:42:00,
2013-06-30 19:48:00,73.7,51.6,30.02,NNW,344,3.0,8.0,46,0.00,,,0.00,Wunderground v.1.15,2013-07-01 00:48:00,
2013-06-30 19:54:00,73.5,52.0,30.02,ENE,57,3.0,8.0,47,0.00,,,0.00,Wunderground v.1.15,2013-07-01 00:54:00,
2013-06-30 20:00:00,73.4,51.9,30.02,ENE,61,3.0,8.0,47,0.00,,,0.00,Wunderground v.1.15,2013-07-01 01:00:00,
2013-06-30 20:06:00,73.2,51.8,30.02,East,101,2.0,8.0,47,0.00,,,0.00,Wunderground v.1.15,2013-07-01 01:06:00,
2013-06-30 20:12:00,73.0,52.1,30.02,ESE,105,2.0,7.0,48,0.00,,,0.00,Wunderground v.1.15,2013-07-01 01:12:00,
2013-06-30 20:18:00,72.7,52.4,30.02,ENE,70,2.0,8.0,49,0.00,,,0.00,Wunderground v.1.15,2013-07-01 01:18:00,
2013-06-30 20:24:00,72.5,52.2,30.02,ENE,63,3.0,8.0,49,0.00,,,0.00,Wunderground v.1.15,2013-07-01 01:24:00,
2013-06-30 20:30:00,72.3,52.1,30.03,North,4,2.0,2.0,49,0.00,,,0.00,Wunderground v.1.15,2013-07-01 01:30:00,
2013-06-30 20:36:00,72.1,51.9,30.02,NE,56,2.0,8.0,49,0.00,,,0.00,Wunderground v.1.15,2013-07-01 01:36:00,
2013-06-30 20:42:00,71.9,52.2,30.03,NE,49,2.0,8.0,50,0.00,,,0.00,Wunderground v.1.15,2013-07-01 01:42:00,
2013-06-30 20:48:00,71.6,52.0,30.03,East,92,1.0,8.0,50,0.00,,,0.00,Wunderground v.1.15,2013-07-01 01:48:00,
2013-06-30 20:54:00,71.3,52.2,30.02,NE,56,1.0,8.0,51,0.00,,,0.00,Wunderground v.1.15,2013-07-01 01:54:00,
2013-06-30 21:00:00,70.9,52.4,30.03,NE,46,1.0,8.0,52,0.00,,,0.00,Wunderground v.1.15,2013-07-01 02:00:00,
2013-06-30 21:06:00,70.6,52.6,30.03,ENE,60,0.0,8.0,53,0.00,,,0.00,Wunderground v.1.15,2013-07-01 02:06:00,
2013-06-30 21:12:00,70.3,52.9,30.03,ENE,59,1.0,8.0,54,0.00,,,0.00,Wunderground v.1.15,2013-07-01 02:12:00,
2013-06-30 21:18:00,70.0,53.1,30.03,ENE,70,0.0,8.0,55,0.00,,,0.00,Wunderground v.1.15,2013-07-01 02:18:00,
2013-06-30 21:24:00,69.6,53.2,30.03,East,86,0.0,8.0,56,0.00,,,0.00,Wunderground v.1.15,2013-07-01 02:24:00,
2013-06-30 21:30:00,69.3,52.9,30.03,ENE,67,0.0,8.0,56,0.00,,,0.00,Wunderground v.1.15,2013-07-01 02:30:00,
2013-06-30 21:36:00,69.0,53.1,30.04,NW,325,0.0,8.0,57,0.00,,,0.00,Wunderground v.1.15,2013-07-01 02:36:00,
2013-06-30 21:42:00,68.8,53.4,30.04,NE,49,0.0,8.0,58,0.00,,,0.00,Wunderground v.1.15,2013-07-01 02:42:00,
2013-06-30 21:48:00,68.4,53.5,30.04,West,273,0.0,8.0,59,0.00,,,0.00,Wunderground v.1.15,2013-07-01 02:48:00,
2013-06-30 21:54:00,68.1,53.7,30.04,ENE,61,0.0,8.0,60,0.00,,,0.00,Wunderground v.1.15,2013-07-01 02:54:00,
2013-06-30 22:00:00,67.8,53.4,30.04,ENE,61,0.0,8.0,60,0.00,,,0.00,Wunderground v.1.15,2013-07-01 03:00:00,
2013-06-30 22:06:00,67.5,53.6,30.05,ENE,60,0.0,8.0,61,0.00,,,0.00,Wunderground v.1.15,2013-07-01 03:06:00,
2013-06-30 22:12:00,67.3,53.8,30.05,NE,44,0.0,8.0,62,0.00,,,0.00,Wunderground v.1.15,2013-07-01 03:12:00,
2013-06-30 22:18:00,67.0,53.5,30.05,NE,44,0.0,8.0,62,0.00,,,0.00,Wunderground v.1.15,2013-07-01 03:18:00,
2013-06-30 22:24:00,66.7,54.1,30.05,NE,44,0.0,8.0,64,0.00,,,0.00,Wunderground v.1.15,2013-07-01 03:24:00,
2013-06-30 22:30:00,66.2,54.1,30.05,NE,44,0.0,8.0,65,0.00,,,0.00,Wunderground v.1.15,2013-07-01 03:30:00,
2013-06-30 22:36:00,65.8,54.1,30.05,NE,44,0.0,8.0,66,0.00,,,0.00,Wunderground v.1.15,2013-07-01 03:36:00,
2013-06-30 22:42:00,65.4,54.2,30.05,NE,44,0.0,8.0,67,0.00,,,0.00,Wunderground v.1.15,2013-07-01 03:42:00,
2013-06-30 22:48:00,65.0,54.2,30.05,NE,46,0.0,8.0,68,0.00,,,0.00,Wunderground v.1.15,2013-07-01 03:48:00,
2013-06-30 22:54:00,64.5,54.5,30.05,NE,46,0.0,8.0,70,0.00,,,0.00,Wunderground v.1.15,2013-07-01 03:54:00,
2013-06-30 23:00:00,64.1,54.5,30.05,NE,46,0.0,8.0,71,0.00,,,0.00,Wunderground v.1.15,2013-07-01 04:00:00,
2013-06-30 23:02:00,63.9,54.3,30.05,NE,46,0.0,8.0,71,0.00,,,0.00,Wunderground v.1.15,2013-07-01 04:02:00,
2013-06-30 23:06:00,63.7,54.1,30.05,NE,46,0.0,8.0,71,0.00,,,0.00,Wunderground v.1.15,2013-07-01 04:06:00,
2013-06-30 23:10:00,63.4,54.2,30.05,NE,46,0.0,8.0,72,0.00,,,0.00,Wunderground v.1.15,2013-07-01 04:10:00,
2013-06-30 23:16:00,63.0,54.6,30.05,NE,46,0.0,8.0,74,0.00,,,0.00,Wunderground v.1.15,2013-07-01 04:16:00,
2013-06-30 23:22:00,62.5,54.5,30.05,NE,46,0.0,8.0,75,0.00,,,0.00,Wunderground v.1.15,2013-07-01 04:22:00,
2013-06-30 23:26:00,62.3,54.3,30.06,NE,46,0.0,8.0,75,0.00,,,0.00,Wunderground v.1.15,2013-07-01 04:26:00,
2013-06-30 23:32:00,62.1,54.4,30.05,NE,46,0.0,8.0,76,0.00,,,0.00,Wunderground v.1.15,2013-07-01 04:32:00,
2013-06-30 23:38:00,62.0,54.3,30.06,NE,46,0.0,8.0,76,0.00,,,0.00,Wunderground v.1.15,2013-07-01 04:38:00,
2013-06-30 23:40:00,61.9,54.2,30.06,NE,46,0.0,8.0,76,0.00,,,0.00,Wunderground v.1.15,2013-07-01 04:40:00,
2013-06-30 23:46:00,61.8,54.2,30.06,NE,46,0.0,8.0,76,0.00,,,0.00,Wunderground v.1.15,2013-07-01 04:46:00,
2013-06-30 23:52:00,61.8,54.5,30.06,NE,46,0.0,8.0,77,0.00,,,0.00,Wunderground v.1.15,2013-07-01 04:52:00,
2013-06-30 23:58:00,61.5,54.2,30.06,NE,46,0.0,8.0,77,0.00,,,0.00,Wunderground v.1.15,2013-07-01 04:58:00,